Location: La Comballaz
(46.3780°N, 7.0817°E)
Time: 18:29:26
(UTC+00:00)

Cosmos 1850 Rocket - Pass Details

Date: 09 April 2020
Orbit: 754 x 786 km, 74.0° (Epoch: 03 June)

Event Time Altitude Azimuth Distance (km) Brightness Sun altitude
Exits shadow 20:24:22 28° 185° (S) 1,376 5.0 -21.3°
Maximum altitude 20:27:04 71° 108° (ESE) 801 3.8 -21.7°
Drops below altitude 10° 20:32:13 10° 26° (NNE) 2,289 6.6 -22.4°
Sets 20:34:36 0° 24° (NNE) 3,219 7.4 -22.7°
